Location: �couen
(49.0206°N, 2.3831°E)
Time: 21:31:18
(UTC+00:00)

ATLAS 3B R/B - Pass Details

Date: 25 May 2022
Orbit: 976 x 1218 km, 63.8° (Epoch: 20 June)

Event Time Altitude Azimuth Distance (km) Brightness Sun altitude
Rises 00:22:40 0° 309° (NW) 4,004 6.1 -19.6°
Reaches altitude 10° 00:26:28 10° 290° (WNW) 3,081 5.2 -19.5°
Maximum altitude 00:30:44 17° 255° (WSW) 2,648 4.5 -19.4°
Enters shadow 00:32:32 15° 238° (WSW) 2,747 4.5 -19.3°
